ONEWEB-0185 (48220 NORAD) Tracking and Keplerian Element Data

This shows tracking and keplerian element data for the satellite.

Feedback or suggestion? Click here.




ElementValue
Catalog48220
NameONEWEB-0185
Epoch Orbit179
Epoch Day136.75001157
Epoch Year2021
RAAN305.7758
Inclination87.4242
Eccentricity0.0008979
Argument of Perigee167.8961
Mean Anonmoly319.8873
Mean Motion15.28653336
Decay Rate-0.01397298
L11 48220U 21031L 21136.75001157 -.01397298 00000-0 -55245-1 0 9995
L22 48220 87.4242 305.7758 0008979 167.8961 319.8873 15.28653336 1799

Live tracking and technical data element details for ONEWEB-0185 (NORAD 48220). ONEWEB-0185 can be tracked NOW for your location showing map with azimuth and elevation plus other details from your city location.

Track the satellite on the map from your city or location and see movement details for azimuth, elevation, latitude, longitude, range, height, and movement on the map or in text.







IsCatalogInMostPopularTable: catalog: 48220, numindb: 6
Update: records affected: 1



GetName: 48220 ONEWEB-0185

Hit Count: updated at: Mon, 17 May 2021 17:04:28 GMT